Beatrice, NE

7:21 AM CDT on July 24, 2017 (GMT -0500)
Beatrice Municipal

Weather History for KBIE - January, 2007

Change the Weather History Date:

Wednesday, January 10, 2007

  Actual Average Record
Temperature  
Mean Temperature 40 °F -  
Max Temperature 53 °F 29 °F 59 °F (2012)
Min Temperature 28 °F 8 °F -18 °F (1982)
Degree Days  
Heating Degree Days 24    
Moisture  
Dew Point 26 °F    
Average Humidity 61    
Maximum Humidity 74    
Minimum Humidity 44    
Precipitation  
Precipitation 0.00 in - - ()
Sea Level Pressure  
Sea Level Pressure 29.92 in    
Wind  
Wind Speed 13 mph (South)    
Max Wind Speed 28 mph    
Max Gust Speed 36 mph    
Visibility 10 miles    
Events      
Averages and records for this station are not official NWS values.
T = Trace of Precipitation, MM = Missing Value Source: NWS Daily Summary

Daily Weather History Graph

Daily Weather History Graph

Search for Another Location

Airport or City:

Trip Planner

Search our weather history database for the weather conditions in past years. The results will help you decide how hot, cold, wet, or windy it might be!

Date:

Astronomy

Jan. 10, 2007 Rise Set
Actual Time 7:49 AM CST 5:19 PM CST
Civil Twilight 7:19 AM CST 5:50 PM CST
Nautical Twilight 6:45 AM CST 6:23 PM CST
Astronomical Twilight 6:12 AM CST 6:56 PM CST
Moon No Moon Rise 11:23 AM CST (1/10)
Length of Visible Light 10h 30m
Length of Day
9h 30m
Waning Gibbous, 57% of the Moon is Illuminated
Jan 10
Waning Gibbous
Jan 11
Last Quarter
Jan 18
New
Jan 25
First Quarter
Feb 1
Full

Hourly Weather History & Observations

Time (CST) Temp. Windchill Dew Point Humidity Pressure Visibility Wind Dir Wind Speed Gust Speed Precip Events Conditions
12:10 AM 28.4 °F 21.2 °F 21.2 °F 74% 30.22 in 10.0 mi SSE 6.9 mph - N/A   Clear
12:30 AM 28.4 °F 20.4 °F 21.2 °F 74% 30.21 in 10.0 mi SSE 8.1 mph - N/A   Clear
12:50 AM 28.4 °F 20.4 °F 21.2 °F 74% 30.19 in 10.0 mi SSE 8.1 mph - N/A   Clear
1:10 AM 28.4 °F 20.4 °F 21.2 °F 74% 30.18 in 10.0 mi SSE 8.1 mph - N/A   Clear
1:30 AM 28.4 °F 19.7 °F 21.2 °F 74% 30.17 in 10.0 mi SSE 9.2 mph - N/A   Clear
1:50 AM 28.4 °F 20.4 °F 21.2 °F 74% 30.15 in 10.0 mi SE 8.1 mph - N/A   Clear
2:10 AM 28.4 °F 20.4 °F 21.2 °F 74% 30.15 in 10.0 mi SSE 8.1 mph - N/A   Clear
2:30 AM 30.2 °F 21.9 °F 21.2 °F 69% 30.14 in 10.0 mi SSE 9.2 mph - N/A   Clear
2:50 AM 30.2 °F 21.3 °F 21.2 °F 69% 30.12 in 10.0 mi SE 10.4 mph - N/A   Clear
3:10 AM 30.2 °F 21.3 °F 21.2 °F 69% 30.11 in 10.0 mi SSE 10.4 mph - N/A   Clear
3:30 AM 30.2 °F 21.3 °F 21.2 °F 69% 30.10 in 10.0 mi SSE 10.4 mph - N/A   Clear
3:50 AM 30.2 °F 20.8 °F 21.2 °F 69% 30.08 in 10.0 mi SSE 11.5 mph - N/A   Clear
4:10 AM 30.2 °F 20.8 °F 21.2 °F 69% 30.06 in 10.0 mi SSE 11.5 mph - N/A   Clear
4:30 AM 30.2 °F 21.9 °F 21.2 °F 69% 30.05 in 10.0 mi SSE 9.2 mph - N/A   Clear
4:50 AM 30.2 °F 20.8 °F 21.2 °F 69% 30.04 in 10.0 mi South 11.5 mph - N/A   Clear
5:10 AM 32.0 °F 23.6 °F 21.2 °F 64% 30.04 in 10.0 mi South 10.4 mph - N/A   Clear
5:30 AM 30.2 °F 21.3 °F 21.2 °F 69% 30.03 in 10.0 mi South 10.4 mph - N/A   Clear
5:50 AM 32.0 °F 24.2 °F 21.2 °F 64% 30.03 in 10.0 mi South 9.2 mph - N/A   Clear
6:10 AM 30.2 °F 21.3 °F 21.2 °F 69% 30.02 in 10.0 mi South 10.4 mph - N/A   Clear
6:30 AM 30.2 °F 21.9 °F 21.2 °F 69% 30.01 in 10.0 mi South 9.2 mph - N/A   Clear
6:50 AM 30.2 °F 22.6 °F 21.2 °F 69% 29.99 in 10.0 mi South 8.1 mph - N/A   Clear
7:10 AM 30.2 °F 21.9 °F 21.2 °F 69% 29.99 in 10.0 mi South 9.2 mph - N/A   Clear
7:30 AM 32.0 °F 23.6 °F 23.0 °F 69% 29.96 in 10.0 mi South 10.4 mph - N/A   Clear
7:50 AM 32.0 °F 23.6 °F 23.0 °F 69% 29.95 in 10.0 mi South 10.4 mph - N/A   Clear
8:10 AM 32.0 °F 23.0 °F 23.0 °F 69% 29.94 in 10.0 mi South 11.5 mph - N/A   Clear
8:30 AM 32.0 °F 22.5 °F 23.0 °F 69% 29.93 in 10.0 mi South 12.7 mph - N/A   Clear
8:50 AM 33.8 °F 24.3 °F 24.8 °F 70% 29.93 in 10.0 mi South 13.8 mph - N/A   Clear
9:10 AM 35.6 °F 25.5 °F 26.6 °F 70% 29.92 in 10.0 mi South 17.3 mph 23.0 mph N/A   Clear
9:30 AM 37.4 °F 26.9 °F 26.6 °F 65% 29.92 in 10.0 mi South 20.7 mph 25.3 mph N/A   Clear
9:50 AM 41.0 °F 31.4 °F 26.6 °F 57% 29.92 in 10.0 mi SSW 21.9 mph 27.6 mph N/A   Clear
10:10 AM 41.0 °F 31.4 °F 26.6 °F 57% 29.92 in 10.0 mi SSW 21.9 mph 31.1 mph N/A   Clear
10:30 AM 42.8 °F 34.5 °F 26.6 °F 53% 29.91 in 10.0 mi SSW 18.4 mph 26.5 mph N/A   Clear
10:50 AM 42.8 °F 33.1 °F 28.4 °F 57% 29.89 in 10.0 mi SSW 25.3 mph 33.4 mph N/A   Clear
11:10 AM 44.6 °F 35.3 °F 28.4 °F 53% 29.87 in 10.0 mi SSW 26.5 mph 33.4 mph N/A   Clear
11:30 AM 44.6 °F 35.7 °F 28.4 °F 53% 29.86 in 10.0 mi SSW 24.2 mph 34.5 mph N/A   Clear
11:50 AM 46.4 °F 37.9 °F 28.4 °F 50% 29.84 in 10.0 mi SSW 25.3 mph 33.4 mph N/A   Clear
12:10 PM 46.4 °F 37.5 °F 30.2 °F 53% 29.82 in 10.0 mi SSW 27.6 mph 33.4 mph N/A   Clear
12:30 PM 48.2 °F - 30.2 °F 50% 29.79 in 10.0 mi SSW 27.6 mph 33.4 mph N/A   Clear
12:50 PM 50.0 °F - 30.2 °F 47% 29.78 in 10.0 mi SSW 25.3 mph 35.7 mph N/A   Clear
1:10 PM 51.8 °F - 30.2 °F 44% 29.77 in 10.0 mi SSW 18.4 mph 29.9 mph N/A   Clear
1:30 PM 51.8 °F - 32.0 °F 47% 29.76 in 10.0 mi SSW 16.1 mph 25.3 mph N/A   Clear
1:50 PM 51.8 °F - 32.0 °F 47% 29.75 in 10.0 mi SSW 24.2 mph 29.9 mph N/A   Clear
2:10 PM 51.8 °F - 32.0 °F 47% 29.73 in 10.0 mi SSW 23.0 mph 29.9 mph N/A   Clear
2:30 PM 51.8 °F - 32.0 °F 47% 29.73 in 10.0 mi SSW 25.3 mph 33.4 mph N/A   Clear
2:50 PM 51.8 °F - 32.0 °F 47% 29.72 in 10.0 mi SSW 25.3 mph 35.7 mph N/A   Clear
3:10 PM 51.8 °F - 32.0 °F 47% 29.71 in 10.0 mi SSW 25.3 mph 34.5 mph N/A   Clear
3:30 PM 53.6 °F - 32.0 °F 44% 29.71 in 10.0 mi SSW 24.2 mph 35.7 mph N/A   Clear
3:50 PM 51.8 °F - 32.0 °F 47% 29.72 in 10.0 mi SSW 19.6 mph 32.2 mph N/A   Clear
4:10 PM 51.8 °F - 32.0 °F 47% 29.71 in 10.0 mi SSW 20.7 mph 29.9 mph N/A   Clear
4:30 PM 51.8 °F - 33.8 °F 50% 29.71 in 10.0 mi SSW 16.1 mph - N/A   Clear
4:50 PM 51.8 °F - 33.8 °F 50% 29.71 in 10.0 mi SSW 20.7 mph 27.6 mph N/A   Clear
5:10 PM 50.0 °F - 33.8 °F 54% 29.71 in 10.0 mi SSW 13.8 mph 20.7 mph N/A   Clear
5:30 PM 48.2 °F - 33.8 °F 58% 29.72 in 10.0 mi South 11.5 mph - N/A   Clear
5:50 PM 46.4 °F 41.5 °F 33.8 °F 62% 29.73 in 10.0 mi South 10.4 mph - N/A   Clear
6:10 PM 44.6 °F 40.7 °F 33.8 °F 66% 29.74 in 10.0 mi South 6.9 mph - N/A   Clear
6:30 PM 44.6 °F 39.7 °F 33.8 °F 66% 29.74 in 10.0 mi South 9.2 mph - N/A   Clear
6:50 PM 44.6 °F 39.7 °F 33.8 °F 66% 29.74 in 10.0 mi South 9.2 mph - N/A   Clear
7:10 PM 44.6 °F 39.2 °F 33.8 °F 66% 29.75 in 10.0 mi South 10.4 mph - N/A   Clear
7:30 PM 44.6 °F 38.4 °F 33.8 °F 66% 29.76 in 10.0 mi South 12.7 mph - N/A   Clear
7:50 PM 44.6 °F 38.8 °F 33.8 °F 66% 29.75 in 10.0 mi South 11.5 mph 16.1 mph N/A   Clear
8:10 PM 44.6 °F 38.1 °F 33.8 °F 66% 29.75 in 10.0 mi South 13.8 mph - N/A   Clear
8:30 PM 44.6 °F 37.8 °F 33.8 °F 66% 29.74 in 10.0 mi South 15.0 mph - N/A   Clear
8:50 PM 46.4 °F 39.8 °F 33.8 °F 62% 29.74 in 10.0 mi South 16.1 mph - N/A   Clear
9:10 PM 46.4 °F 39.8 °F 33.8 °F 62% 29.74 in 10.0 mi South 16.1 mph 21.9 mph N/A   Clear
9:30 PM 44.6 °F 37.4 °F 33.8 °F 66% 29.74 in 10.0 mi South 16.1 mph 20.7 mph N/A   Clear
9:50 PM 44.6 °F 38.4 °F 33.8 °F 66% 29.74 in 10.0 mi South 12.7 mph - N/A   Clear
10:10 PM 42.8 °F 36.6 °F 33.8 °F 70% 29.73 in 10.0 mi South 11.5 mph - N/A   Clear
10:30 PM 42.8 °F 37.0 °F 32.0 °F 66% 29.74 in 10.0 mi South 10.4 mph - N/A   Clear
10:50 PM 42.8 °F 36.6 °F 32.0 °F 66% 29.73 in 10.0 mi South 11.5 mph - N/A   Clear
11:10 PM 42.8 °F 37.0 °F 32.0 °F 66% 29.73 in 10.0 mi South 10.4 mph - N/A   Clear
11:30 PM 41.0 °F 35.2 °F 32.0 °F 70% 29.73 in 10.0 mi South 9.2 mph - N/A   Clear
11:50 PM 41.0 °F 34.7 °F 32.0 °F 70% 29.73 in 10.0 mi South 10.4 mph - N/A   Clear